Theta_e
312 315 316 318 319 324 324 322 320 321 321 320 321 321 320 321 321 321 321 320 325 329 329 329 329 330 329 331 329 327 325 322 321 320 319 319 321 321 320 319 320 321 323
312 313 315 317 319 324 322 321 320 320 319 320 319 320 320 320 321 321 321 321 324 327 328 329 330 331 331 330 329 327 324 322 320 319 318 318 321 320 319 320 322 321 321
310 313 314 317 318 321 321 321 320 320 319 319 317 319 319 320 320 320 319 321 321 321 326 328 329 330 330 329 327 325 323 321 319 318 318 320 320 321 320 321 320 319 321
310 312 313 315 319 320 319 318 319 318 317 316 315 316 317 318 319 318 318 320 320 318 319 324 325 325 327 328 326 324 322 320 318 317 318 319 320 322 321 321 320 320 320
310 310 312 314 316 318 318 317 317 317 315 315 314 315 316 316 316 317 318 318 317 314 313 316 316 320 322 325 325 323 321 319 317 316 318 318 321 321 321 320 319 319 318
310 310 311 314 315 317 318 317 316 317 315 315 314 314 315 316 316 317 315 315 315 313 312 311 310 312 317 319 321 322 320 318 317 317 318 318 320 320 319 318 318 317 316
310 309 311 312 314 316 317 317 316 315 313 315 309 307 306 306 306 308 310 308 306 307 308 307 306 306 307 313 315 318 319 317 316 317 319 317 319 319 317 317 317 316 313
307 308 310 311 313 315 316 316 316 313 313 314 308 306 302 303 302 302 303 304 304 305 305 304 303 303 303 303 306 311 314 316 317 317 318 318 318 317 317 316 314 313 312
306 308 309 311 312 314 315 314 315 314 311 313 311 308 303 300 300 302 300 301 303 303 303 302 301 301 303 301 302 303 307 310 313 316 317 317 317 317 315 314 312 311 311
305 308 309 309 311 313 313 315 316 315 314 309 312 313 309 305 300 297 300 299 300 300 301 299 298 300 302 300 301 302 305 307 309 312 314 316 316 316 314 312 311 310 310
304 306 306 307 308 311 313 316 315 315 315 311 311 310 310 308 307 302 296 296 297 298 298 298 298 298 299 299 300 300 305 307 308 310 312 313 314 313 312 311 309 309 309
302 304 305 306 307 309 312 316 317 315 314 313 312 311 310 307 306 305 300 298 296 295 296 297 297 297 297 298 298 299 303 306 307 309 310 310 310 310 309 307 307 308 307
300 301 302 303 306 309 311 314 317 315 315 314 313 312 312 310 311 311 304 300 297 295 295 295 295 296 296 297 297 297 299 304 306 308 308 308 308 307 306 305 304 305 305
299 301 302 304 305 307 310 313 317 316 316 315 313 313 312 311 312 311 305 301 297 295 294 293 293 294 294 296 296 297 298 301 305 306 306 305 305 304 303 303 302 302 302
299 300 301 302 304 306 310 313 316 316 316 315 315 314 313 311 313 313 308 305 301 297 294 292 291 293 295 296 294 297 297 298 303 304 304 303 303 302 301 300 300 300 301
299 299 300 302 304 307 312 314 315 317 316 316 315 314 313 312 313 314 311 309 309 304 294 293 292 293 294 295 294 296 296 296 299 301 301 301 300 300 298 297 297 298 298
298 299 300 302 305 310 313 316 317 317 315 315 315 314 313 312 313 313 314 311 306 304 293 290 291 292 292 292 293 294 295 295 295 298 299 299 298 297 296 295 294 294 294
298 299 300 303 310 314 315 315 315 315 314 313 313 313 312 312 312 313 312 308 304 302 295 289 289 289 291 292 292 290 292 294 293 297 298 297 296 295 294 293 292 292 291
298 299 302 309 313 314 313 314 314 313 312 312 313 313 311 312 310 310 307 303 300 298 296 291 288 289 289 290 289 289 288 288 292 294 297 296 295 295 294 293 292 291 291
297 299 301 304 307 308 309 308 307 305 305 306 309 310 310 310 308 306 303 301 299 296 293 290 288 287 287 288 288 286 284 282 284 290 293 294 294 294 294 293 292 292 291
297 298 299 299 299 299 302 303 302 301 301 299 298 299 301 297 296 301 303 300 298 295 292 289 286 287 285 285 285 286 285 285 285 286 287 289 291 292 292 293 290 291 292
295 295 294 294 294 295 294 296 299 299 298 298 296 296 297 295 294 294 295 295 297 296 293 291 289 287 284 283 286 286 285 285 284 284 285 287 288 289 289 292 293 293 293
294 293 293 293 293 293 293 293 293 296 295 294 294 294 292 292 293 294 293 293 290 293 295 295 292 291 288 287 287 285 285 285 285 285 286 285 286 287 288 291 294 294 294
292 293 293 292 292 292 292 291 290 291 290 290 291 291 291 291 291 292 292 290 288 287 288 289 292 290 291 290 289 288 287 285 283 283 285 283 278 287 288 288 292 294 295
291 290 291 291 291 291 292 292 291 290 288 286 287 288 288 287 289 291 289 288 286 285 287 289 291 290 292 292 290 287 285 285 284 284 283 284 279 281 285 284 289 294 295
287 287 287 287 285 288 291 291 291 288 286 285 286 286 287 287 289 289 285 283 281 281 280 279 282 284 286 287 291 288 286 285 285 284 282 281 282 282 278 281 285 287 289
Wind_Speed
4 5 4 4 4 1 4 7 8 9 14 13 3 5 6 8 10 5 4 5 8 9 7 7 6 9 12 16 17 17 15 14 14 13 12 11 13 15 14 13 15 13 14
4 5 5 4 3 2 2 7 9 10 13 11 3 6 6 4 10 9 6 5 11 9 8 10 10 11 15 18 19 17 15 14 13 12 11 11 11 12 13 13 14 15 18
6 5 4 5 3 1 5 4 9 9 10 11 7 7 7 4 6 10 7 6 8 13 11 14 17 15 17 18 18 16 16 13 12 12 11 11 11 11 10 12 15 15 19
7 4 4 4 3 2 4 4 5 10 11 11 8 8 6 5 2 9 7 6 6 6 12 14 13 14 15 16 16 15 15 13 12 11 10 11 12 12 12 14 16 16 20
5 4 4 3 5 3 5 4 3 8 9 10 10 9 7 4 4 5 9 10 10 8 5 14 16 13 15 16 15 14 14 12 10 10 10 11 13 14 15 16 16 18 18
4 3 4 2 5 3 5 5 6 3 10 11 11 9 7 5 5 6 8 9 8 6 4 5 5 8 16 14 15 14 12 12 9 9 10 11 12 13 16 15 16 19 19
3 4 5 2 2 3 3 8 9 8 6 10 8 9 7 7 8 6 6 6 7 5 5 6 4 3 7 16 12 12 12 10 9 9 9 10 12 14 14 15 17 18 16
5 5 6 3 3 2 5 4 5 6 5 10 10 6 4 4 7 6 6 6 4 4 6 8 7 7 6 4 9 13 11 10 10 9 10 11 12 14 14 15 13 15 14
4 4 6 5 3 3 2 5 6 4 9 5 11 5 4 4 4 3 7 5 3 4 6 7 6 5 7 5 8 8 9 7 10 11 11 10 12 13 14 14 14 13 16
3 4 5 5 3 3 3 6 6 5 10 12 3 5 4 6 4 4 3 3 5 6 7 5 4 5 5 4 7 8 8 9 10 11 11 10 12 14 13 14 12 14 15
3 3 3 4 3 3 2 7 7 6 7 10 4 4 4 5 6 4 3 2 2 4 4 4 3 4 5 4 4 5 9 10 9 9 10 13 13 14 14 12 13 14 15
2 2 3 4 4 3 2 2 7 9 6 9 4 5 5 4 4 4 4 3 3 2 2 3 3 3 3 3 4 7 9 9 9 9 11 14 15 14 13 11 12 13 14
2 3 4 3 3 3 3 3 6 9 9 8 7 5 3 3 3 3 4 3 3 2 2 2 3 3 2 2 3 6 8 8 8 11 12 13 13 13 11 9 10 11 12
3 4 4 3 4 5 4 3 1 7 7 8 8 5 4 3 3 3 5 6 3 2 1 3 2 1 1 2 3 5 4 6 7 11 11 12 11 11 9 9 8 9 9
4 5 4 5 5 5 4 3 2 6 8 6 7 7 5 3 3 1 5 5 5 4 3 2 2 2 2 2 2 3 4 5 7 9 11 10 9 10 7 6 6 7 9
5 6 6 4 5 6 6 6 4 6 8 6 6 8 5 3 4 3 4 3 1 3 4 1 1 2 2 2 3 4 3 5 8 7 8 7 6 8 6 3 4 6 7
6 5 5 5 6 7 7 7 7 9 7 7 6 9 7 6 4 3 3 3 3 4 5 2 2 1 2 3 2 2 1 4 3 6 7 7 6 5 4 3 3 5 6
6 5 4 6 7 6 6 7 7 7 8 7 7 8 8 5 5 4 3 4 4 4 4 4 2 1 1 3 3 2 1 2 3 5 6 6 7 6 4 2 1 2 2
5 5 3 3 6 7 7 6 6 5 6 6 7 8 8 8 5 4 4 5 4 3 3 5 4 1 1 1 1 2 1 1 0 2 5 6 6 8 6 4 3 3 4
6 6 6 7 6 6 7 7 6 6 6 5 5 6 6 6 7 6 5 6 5 5 5 6 3 3 2 2 2 2 1 0 1 1 3 4 7 7 8 9 7 6 6
8 8 9 10 10 9 4 7 7 6 7 8 7 7 6 6 10 7 5 5 5 4 5 4 3 2 2 2 4 3 3 1 2 2 3 4 3 4 5 8 7 9 10
10 10 12 11 11 8 12 13 9 8 8 8 9 8 8 10 12 14 14 14 7 5 3 3 3 2 2 2 2 2 3 3 3 3 2 6 3 6 5 5 10 12 13
9 12 11 11 12 10 17 18 15 10 9 9 9 8 8 7 8 10 14 15 13 13 9 2 3 2 3 5 5 4 3 3 2 1 4 5 4 9 5 8 16 16 15
8 8 10 10 11 9 16 18 16 11 11 10 8 8 9 8 6 7 8 7 6 6 6 4 4 3 0 4 5 5 5 3 1 1 1 4 2 5 4 7 19 19 17
8 8 7 9 11 9 12 12 11 9 10 9 8 8 8 8 9 9 7 7 6 5 6 8 8 6 4 6 6 5 2 2 2 2 4 3 3 3 2 4 6 17 17
6 5 8 7 7 9 10 11 9 6 8 7 7 8 13 9 12 11 7 5 5 2 3 4 4 5 6 4 5 2 3 3 2 2 1 3 1 1 4 3 2 3 5
Wind_Direction
316 307 303 298 292 319 173 153 138 144 141 125 215 90 113 110 117 116 104 112 117 114 111 116 114 136 129 116 101 86 77 65 58 51 47 41 34 40 39 48 50 34 29
322 305 318 305 289 40 170 160 149 145 144 128 125 118 88 85 119 112 98 79 67 74 90 88 81 116 116 107 93 84 73 64 56 53 48 41 40 45 54 44 40 46 44
309 308 315 316 326 171 139 155 151 145 138 127 124 118 98 72 121 117 111 97 78 57 67 78 74 85 98 98 93 86 74 59 53 50 44 38 43 44 38 45 51 47 54
314 316 318 324 339 253 112 95 166 150 132 124 122 101 114 95 146 126 128 118 93 69 48 55 75 75 72 88 90 83 78 59 52 49 43 39 38 48 66 61 53 52 49
303 327 312 327 324 290 147 125 62 129 130 127 119 106 98 101 69 87 83 88 90 86 77 64 53 57 71 63 73 81 79 71 58 51 41 47 47 67 69 61 55 52 47
289 317 303 339 319 305 147 145 107 116 118 114 113 102 83 69 48 67 82 83 86 92 102 87 73 61 71 68 56 66 70 66 65 56 43 57 51 73 63 56 53 55 48
350 331 310 7 315 297 163 159 154 135 129 127 107 82 66 60 56 47 76 77 65 56 63 73 59 51 55 62 59 49 57 64 62 55 47 60 64 69 62 61 56 50 45
345 320 327 326 303 290 135 118 119 137 163 148 135 117 135 98 59 42 65 76 91 93 81 69 56 58 72 67 59 51 50 48 48 50 46 76 75 71 71 65 57 54 49
337 324 317 327 349 336 152 157 143 154 153 138 142 139 159 138 124 33 50 59 90 92 87 72 62 58 69 63 57 45 51 47 40 44 46 69 82 83 73 66 58 52 50
1 342 350 337 338 321 316 156 160 171 152 146 136 72 57 124 141 129 65 29 44 56 73 75 63 49 64 81 71 41 32 44 39 41 43 66 83 80 72 67 59 52 51
4 11 340 330 335 310 305 162 165 149 156 157 124 115 111 107 86 117 133 134 66 52 51 66 67 69 56 45 57 37 30 46 42 41 52 64 74 76 71 62 54 53 50
337 13 345 317 313 301 298 241 166 158 144 154 119 125 140 124 136 130 119 128 120 83 65 58 66 65 59 68 62 52 33 40 57 59 70 72 70 67 68 63 55 52 51
351 347 335 312 319 302 293 320 175 150 155 147 146 133 92 97 118 112 110 130 132 124 136 71 56 51 66 70 64 56 38 30 59 76 74 76 78 77 72 63 62 55 54
315 303 282 295 286 267 256 250 153 150 151 148 134 119 124 133 136 141 140 143 113 141 137 122 75 122 159 91 96 53 52 33 64 86 84 81 80 78 79 71 60 56 56
299 302 303 284 280 255 238 220 179 142 142 147 154 139 137 136 143 83 123 145 145 151 174 143 148 191 189 178 73 99 72 36 87 96 92 94 95 101 84 76 70 55 48
305 299 297 277 251 221 203 200 188 151 149 152 159 162 140 140 147 128 145 199 125 123 116 143 85 158 186 122 61 106 119 75 95 100 108 111 106 106 107 81 60 56 56
303 299 280 270 235 198 185 184 153 145 144 152 155 162 150 142 151 160 142 115 117 95 110 86 106 157 131 143 161 148 137 143 118 134 135 135 119 102 112 110 57 39 33
308 291 271 246 192 181 156 125 124 141 150 148 149 153 153 137 139 143 137 118 103 90 120 139 120 145 170 185 173 147 84 33 125 174 162 156 133 155 151 167 124 24 1
335 328 315 139 95 104 109 112 117 125 134 142 150 148 148 154 145 128 120 117 96 102 103 126 118 144 106 148 78 52 121 306 3 251 206 168 178 176 185 210 231 244 268
12 14 26 59 67 83 86 88 97 92 91 87 114 127 135 142 136 133 122 121 124 102 98 100 101 118 150 135 108 127 318 326 229 312 278 221 207 222 206 209 224 241 249
29 43 60 56 49 49 54 98 88 83 91 81 59 58 62 90 98 102 127 123 115 94 103 111 108 152 150 148 192 173 178 172 302 207 255 248 240 228 237 237 228 224 246
47 57 56 61 58 50 53 72 92 86 79 85 86 68 60 69 68 76 82 78 85 113 136 134 134 131 180 192 161 154 127 142 243 200 230 249 220 247 242 227 233 242 243
64 63 62 63 62 59 64 71 73 76 72 67 68 74 68 55 71 82 74 72 61 54 55 128 118 161 170 187 150 163 180 164 217 171 184 269 201 241 244 249 250 246 239
61 70 71 67 71 63 76 76 79 82 78 68 66 76 82 69 64 95 91 84 76 60 41 42 69 98 79 167 162 173 168 135 74 337 233 266 261 238 228 242 241 242 233
65 61 58 71 80 66 62 74 84 83 78 70 67 64 74 68 45 69 84 83 62 54 36 47 57 56 4 157 151 121 134 125 221 232 205 251 272 293 228 245 220 237 238
72 67 67 50 53 68 62 80 90 100 91 82 62 65 72 74 61 66 84 98 85 37 31 18 24 37 34 35 173 17 147 173 157 274 187 212 290 293 304 265 266 249 238